TimeEST,TemperatureF,Dew PointF,Humidity,Sea Level PressureIn,VisibilityMPH,Wind Direction,Wind SpeedMPH,Gust SpeedMPH,PrecipitationIn,Events,Conditions,WindDirDegrees,DateUTC
12:43 AM,46.4,42.8,87,29.93,6.0,WSW,4.6,-,N/A,,Overcast,240,2012-12-03 05:43:00
12:54 AM,46.9,44.1,90,29.95,6.0,SSW,9.2,-,N/A,,Overcast,210,2012-12-03 05:54:00
1:54 AM,46.9,44.1,90,29.97,6.0,SSW,8.1,-,0.01,,Overcast,200,2012-12-03 06:54:00
1:59 AM,46.4,44.6,93,29.97,6.0,SSW,9.2,-,N/A,,Overcast,200,2012-12-03 06:59:00
2:54 AM,46.9,44.1,90,30.01,5.0,South,6.9,-,N/A,,Overcast,190,2012-12-03 07:54:00
3:07 AM,46.4,44.6,93,30.01,4.0,SSW,5.8,-,N/A,,Overcast,210,2012-12-03 08:07:00
3:35 AM,46.4,44.6,93,30.02,4.0,South,6.9,-,N/A,,Overcast,190,2012-12-03 08:35:00
3:54 AM,46.9,44.1,90,30.04,6.0,WSW,3.5,-,N/A,,Overcast,250,2012-12-03 08:54:00
4:10 AM,46.4,42.8,87,30.05,8.0,NW,10.4,-,N/A,,Overcast,320,2012-12-03 09:10:00
4:21 AM,46.4,42.8,87,30.05,8.0,NW,15.0,23.0,N/A,,Overcast,310,2012-12-03 09:21:00
4:39 AM,48.2,41.0,76,30.07,10.0,NW,17.3,24.2,N/A,,Overcast,310,2012-12-03 09:39:00
4:54 AM,48.0,41.0,77,30.09,10.0,WNW,10.4,-,N/A,,Overcast,300,2012-12-03 09:54:00
5:25 AM,44.6,41.0,87,30.09,10.0,North,11.5,-,N/A,,Overcast,360,2012-12-03 10:25:00
5:32 AM,44.6,41.0,87,30.09,10.0,North,5.8,-,N/A,,Overcast,360,2012-12-03 10:32:00
5:54 AM,44.1,39.9,85,30.11,10.0,North,5.8,-,N/A,,Overcast,350,2012-12-03 10:54:00
6:54 AM,42.1,36.0,79,30.16,10.0,North,11.5,-,N/A,,Overcast,350,2012-12-03 11:54:00
7:54 AM,41.0,35.1,79,30.19,10.0,North,6.9,-,N/A,,Overcast,10,2012-12-03 12:54:00
8:54 AM,39.9,34.0,79,30.22,10.0,North,6.9,-,N/A,,Mostly Cloudy,360,2012-12-03 13:54:00
9:54 AM,39.9,34.0,79,30.25,10.0,NNE,6.9,-,N/A,,Mostly Cloudy,20,2012-12-03 14:54:00
10:54 AM,41.0,34.0,76,30.25,10.0,NNE,4.6,-,N/A,,Overcast,30,2012-12-03 15:54:00
11:54 AM,41.0,33.1,73,30.24,10.0,NE,4.6,-,N/A,,Mostly Cloudy,40,2012-12-03 16:54:00
12:54 PM,43.0,33.1,68,30.24,10.0,NE,8.1,-,N/A,,Mostly Cloudy,40,2012-12-03 17:54:00
1:54 PM,43.0,33.1,68,30.24,10.0,NNE,4.6,-,N/A,,Mostly Cloudy,30,2012-12-03 18:54:00
2:54 PM,42.1,32.0,67,30.25,10.0,Calm,Calm,-,N/A,,Overcast,0,2012-12-03 19:54:00
3:54 PM,42.1,33.1,70,30.26,10.0,ESE,3.5,-,N/A,,Overcast,110,2012-12-03 20:54:00
4:54 PM,41.0,33.1,73,30.27,10.0,Calm,Calm,-,N/A,,Overcast,0,2012-12-03 21:54:00
5:54 PM,41.0,33.1,73,30.26,10.0,Calm,Calm,-,N/A,,Overcast,0,2012-12-03 22:54:00
6:54 PM,39.9,33.1,77,30.26,10.0,Calm,Calm,-,N/A,,Overcast,0,2012-12-03 23:54:00
7:54 PM,39.9,33.1,77,30.26,10.0,East,3.5,-,N/A,,Overcast,90,2012-12-04 00:54:00
8:54 PM,39.9,34.0,79,30.26,10.0,Calm,Calm,-,N/A,,Overcast,0,2012-12-04 01:54:00
9:54 PM,39.9,34.0,79,30.26,10.0,Calm,Calm,-,N/A,,Overcast,0,2012-12-04 02:54:00
10:54 PM,39.9,34.0,79,30.25,10.0,SSE,3.5,-,N/A,,Overcast,160,2012-12-04 03:54:00
11:54 PM,41.0,34.0,76,30.24,10.0,SSE,4.6,-,N/A,,Overcast,160,2012-12-04 04:54:00